Weather in Pukov

Ukraine / Ivano-Frankovsk District     49°23′59″N   24°41′33″E
temp.,
°C
wind,
m/s
gust,
m/s
humid.,
%
clouds,
%
prec.,
mm/h
press.,
hPa
HPBL,
m
17 august, wed
wed1700:00+17wnw3994100 0.5 1009211
03:00+15nnw239890 0.6 100865
06:00+15nnw229941 0.0 100955
09:00+18nw2388100 0.0 1010289
12:00+22nnw3473100 0.0 1011793
15:00+24nnw446491 1.0 10101413
18:00+22n357879 0.8 1011294
21:00+18nne22895 1.2 101212
18 august, thu
thu1800:00+17nw22905 0.0 101215
03:00+16nw22935 0.0 101216
06:00+16nw11943 0.0 101212
09:00+20nw23810 0.0 1013261
12:00+25n33590 0.0 1013963
15:00+27nne34510 0.0 10121490
18:00+27ene335311 0.0 10121506
21:00+21ne22740 0.0 101319
19 august, fri
fri1900:00+20ene22775 0.0 101311
03:00+18e11765 0.0 101311
06:00+17e11786 0.0 101311
09:00+22e24645 0.0 1013216
12:00+27ese34475 0.0 10131055
15:00+29e33405 0.0 10131520
18:00+28e344679 0.0 10121397
21:00+22ene3868100 0.0 1012111
20 august, sat
sat2000:00+20e497161 0.0 1012138
03:00+18e3576100 0.0 101290
06:00+18ese397825 0.0 1011154
09:00+22se486797 0.0 1012306
12:00+28se6748100 0.0 10111020
15:00+30se4541100 0.0 10111541
18:00+30e45465 0.0 1010884
21:00+22sse3376100 0.9 101133
21 august, sun
sun2100:00+20wnw1182100 0.2 101111
03:00+18wsw1188100 0.6 101211
06:00+17nw2295100 0.4 101224
09:00+20nnw569069 0.4 1012463
12:00+23nnw3475100 0.0 1012742
15:00+27nw3257100 0.1 10111391
18:00+23wnw5578100 3.1 1012530
21:00+19nnw3995100 6.6 1012292